INDOWIN99

Jackpot

Texas Poker Multi Jackpot System

Kini Telah hadir Jackpot SUPER ROYAL FLUSH

Kini Telah hadir Jackpot 2000 (khusus table VIP keatas).

Ikutilah global jackpot yang tersedia di system kami, dengan system jackpot terbaru dan pertama di indonesia, anda dapat membeli jackpot dengan harga 100 rupiah saja dan menangkan hadiahnya hingga puluhan juta rupiah.

Jackpot bukanlah suatu keharusan untuk dibeli, namun kami memberikan suatu fitur tambahan untuk member tercinta dari www.indowin99.org.

Terdapat tiga pilihan harga jackpot yang bisa anda beli yaitu :100,500,1000 dan 2000(khusus table VIP Keatas) rupiah.

Hadiah dari Multi jackpot system www.indowin99.org

  1. full house x 10 harga jackpot yang anda beli.
      (contoh:anda membeli 1000 maka:1000 X10 = 10.000)
  2. four of kind x 250 harga jackpot yang anda beli
      (contoh:anda membeli 1000 maka:1000 X250 = 250.000)
  3. Straight flush x 1200
      (contoh:anda membeli 1000 maka:1000 X1200 = 1.200.000)
  4. Royal flush x 10000 harga jackpot yang anda beli
      (contoh:anda membeli 1000 maka:1000 X10000 = 10.000.000)
  5. SUPER ROYAL FLUSH x 30000 harga jackpot yang anda beli
      (contoh:anda membeli 1000 maka:1000 X30000 = 30.000.000)

Kondisi kartu

  1. full house adalah kondisi kartu dimana kartu anda dan kartu tengah dengan total 7 kartu bisa mendapatkan nilai 5 kartu dengan kombinasi 1 tris(three of kind) dan 1 pair, contoh 3 kartu 10 dan 2 kartu 5
  2. Four of kind adalah kondisi kartu dimana kartu anda dan kartu tengah dengan total 7 kartu bisa mendapatkan nilai 5 kartu dengan kombinasi 4 kartu yang sama jumlah dan 1 kartu apapun juga contoh anda mendapatkan 4 buah kartu angka 3 dan 1 kartu apapun.
  3. Staright flush adalah kondisi kartu dimana kartu anda dan kartu tengah dengan total 7 kartu bisa mendapatkan nilai 5 kartu dengan kombinasi seri / staright dengan kembang yang sama contoh : urutan kartu dari angka 5, 6, 7, 8 , 9 10 dengan kembang yg sama misalnya as hati
  4. Royal flush adalah kondisi kartu dimana kartu anda dan kartu tengah dengan total 7 kartu bisa mendapatkan nilai 5 kartu dengan kombinasi seri / staright dengan kembang yang sama tetapi kartu tersebut haruslah dimulai dari 10. contoh 10, Queen, Jack, King dan aces dengan kembang yang sama
  5. Super Royal flush adalah kondisi kartu dimana Kedua kartu anda digabung dengan 3 kartu pertama meja haruslah royal flush. contoh kartu anda 10,Queen kembang sama dan 3 kartu pertama meja adalah Jack, King dan aces dengan kembang yang sama

Demikian adalah penjelasan dari Multi Jackpot www.indowin99.org terima kasih dan selamat bermain salam hoki dari kami

Texas Poker Jackpot Winner

TOP SUPER ROYAL FLUSH
No.TanggalNamaPriceWin
115/08 10:23DONKRAYSuper Royal flush30,000,000
215/08 09:49AGUS12121Super Royal flush3,000,000
315/08 08:05LARAS93Super Royal flush15,000,000
415/08 07:46APUY62Super Royal flush30,000,000
515/08 06:39E2E3UNKUT0Super Royal flush30,000,000
TOP ROYAL FLUSH
No.TanggalNamaPriceWin
115/08 18:17KBJIN4XH64Royal flush10,000,000
215/08 18:03SIMORA04Royal flush2,000,000
315/08 17:39RIZIK_SAHRoyal flush5,000,000
415/08 17:30SAA75Royal flush1,000,000
515/08 17:26MAMANG777Royal flush5,000,000
TOP STRAIGHT FLUSH
No.TanggalNamaPriceWin
115/08 18:17DA122Straight Flush240,000
215/08 18:16ALLUNK88Straight Flush2,400,000
315/08 18:15FERRY1996Straight Flush240,000
415/08 18:14BISA098Straight Flush600,000
515/08 18:13MELESET007Straight Flush1,200,000
LATEST JACKPOT
No.TanggalNamaPriceWin
115/08 18:18NCM16257Full House20,000
215/08 18:18JACKPTPLESFull House20,000
315/08 18:18INKOMFull House1,000
415/08 18:18CUPEZ87Full House10,000
515/08 18:18DEFGIEFull House10,000
615/08 18:18WILFRY99Full House10,000
715/08 18:18ZBV0DSGZAVFull House2,000
815/08 18:18OKEH2017Full House2,000
915/08 18:18BREMBO7070Full House5,000
1015/08 18:18MINI098Full House2,000
1115/08 18:18DEDY420Full House5,000
1215/08 18:18TO1518Full House10,000
1315/08 18:18XBA40T6ONTFull House5,000
1415/08 18:18RULI_80Full House2,000
1515/08 18:17K4MB1ANGFull House2,000
1615/08 18:17LORG53Four Of A Kind125,000
1715/08 18:17DDB4193FFull House2,000
1815/08 18:17DOE3111Full House5,000
1915/08 18:17HRP8SRG888Full House2,000
2015/08 18:17MARUNGAPFull House1,000
2115/08 18:17A180B397Full House5,000
2215/08 18:17CHANDIZFull House5,000
2315/08 18:17QAAET0P4IDFull House1,000
2415/08 18:17DEPOMANJANFull House2,000
2515/08 18:17BRAV33Full House10,000
2615/08 18:17ERA123Full House2,000
2715/08 18:17DWSYG78Full House5,000
2815/08 18:17APPAMFull House5,000
2915/08 18:17KBJIN4XH64Royal flush10,000,000
3015/08 18:17MAANGKKAFull House5,000
3115/08 18:17TEMPE_007Full House10,000
3215/08 18:17GOBLIN89Full House2,000
3315/08 18:17C8SPBK0PI0Full House5,000
3415/08 18:17FEAC1B14Full House5,000
3515/08 18:17IANKURO2Full House2,000
3615/08 18:17AAKJFull House2,000
3715/08 18:17B75CBDC1Full House2,000
3815/08 18:17BENMASTERFull House2,000
3915/08 18:17GAFATAR303Full House10,000
4015/08 18:17MATUYEFull House5,000
4115/08 18:17ZOKI888Full House10,000
4215/08 18:17B0387968Full House10,000
4315/08 18:17PAIR_AFull House5,000
4415/08 18:17QWERTY325Full House5,000
4515/08 18:17AIZVAYWHQQFull House5,000
4615/08 18:17K0LAMFull House2,000
4715/08 18:17RONDOGEBOYFull House2,000
4815/08 18:17REREFFull House20,000
4915/08 18:17C0A8980CFull House5,000
5015/08 18:17SOMPLAK87Full House2,000

Domino Multi Jackpot System

Ikutilah global jackpot yang tersedia di system kami, dengan system jackpot terbaru dan pertama di indonesia, anda dapat membeli jackpot dengan harga 100 rupiah saja dan menangkan hadiahnya hingga puluhan juta rupiah.

Jackpot bukanlah suatu keharusan untuk dibeli, namun kami memberikan suatu fitur tambahan untuk member tercinta dari www.indowin99.org.

Terdapat tiga pilihan harga jackpot yang bisa anda beli yaitu :100,500 dan 1000 rupiah.

Hadiah dari Multi jackpot system www.indowin99.org

  1. Murni Kecil x 50 harga jackpot yang anda beli.
      (contoh:anda membeli 1000 maka:1000 X 50 = 50.000)
  2. Murni Besar x 50 harga jackpot yang anda beli
      (contoh:anda membeli 1000 maka:1000 X 50 = 50.000)
  3. BALAK x 100 harga jackpot yang anda beli
      (contoh:anda membeli 1000 maka:1000 X 100 = 100.000)
  4. ENAM DEWA x 6666 harga jackpot yang anda beli
      (contoh:anda membeli 1000 maka:1000 X 6666 = 6.666.000)

Demikian adalah penjelasan dari Multi Jackpot www.indowin99.org terima kasih dan selamat bermain salam hoki dari kami

Domino Jackpot Winner

TOP ENAM DEWA
No.TanggalNamaPriceWin
115/08 17:48UNDUNGI09murni enam3,333,000
215/08 16:05PIN73Rmurni enam6,666,000
315/08 14:54HOAS88murni enam3,333,000
415/08 10:05THEDUURSmurni enam6,666,000
515/08 08:34SAENG01murni enam3,333,000
TOP BALAK
No.TanggalNamaPriceWin
115/08 18:13FIREON9Xbalak10,000
215/08 18:10KONYING87balak10,000
315/08 18:10PARJAN99balak10,000
415/08 18:07SNI54230balak50,000
515/08 18:07IW4N98balak10,000
LATEST JACKPOT
No.TanggalNamaPriceWin
115/08 18:17MR_DESTAmurni kecil25,000
215/08 18:17CUPLIS08murni kecil25,000
315/08 18:16RSNASPTN23murni kecil50,000
415/08 18:16OXA99murni besar5,000
515/08 18:15OCY55murni kecil50,000
615/08 18:15HAMPURA11murni besar50,000
715/08 18:15ECB55019murni kecil25,000
815/08 18:14MUSILIMA12murni kecil5,000
915/08 18:14VIRGINJOmurni kecil50,000
1015/08 18:13DIKDIK899murni kecil25,000
1115/08 18:13FIREON9Xbalak10,000
1215/08 18:13GINAlucky9910,000
1315/08 18:12C9D3D493murni kecil5,000
1415/08 18:12KATELmurni kecil5,000
1515/08 18:12YAMATHOlucky9910,000
1615/08 18:11WWBALAK66murni besar25,000
1715/08 18:11BRAYY88899murni kecil50,000
1815/08 18:10BEL1NKmurni kecil50,000
1915/08 18:10KONYING87balak10,000
2015/08 18:10PARJAN99balak10,000
2115/08 18:09T4DARDY93lucky9910,000
2215/08 18:09A36DI711murni kecil25,000
2315/08 18:09HALINAUmurni besar50,000
2415/08 18:09HARIMULYADmurni besar5,000
2515/08 18:09RAMALlucky9925,000
2615/08 18:09PELLERmurni kecil5,000
2715/08 18:07GREATLmurni kecil50,000
2815/08 18:07SNI54230balak50,000
2915/08 18:07IW4N98balak10,000
3015/08 18:06KPTNmurni besar50,000
3115/08 18:06C12F4C00murni kecil50,000
3215/08 18:05DEWO22murni kecil5,000
3315/08 18:05SAB_Tmurni besar50,000
3415/08 18:04LUNAR21murni kecil50,000
3515/08 18:03BANDARTEmurni besar25,000
3615/08 18:03MBENG27lucky9910,000
3715/08 18:03MAYABOHAYmurni kecil50,000
3815/08 18:02GOPE113murni besar5,000
3915/08 18:02A294CB5Amurni kecil25,000
4015/08 18:02BAYURAFA9murni besar50,000
4115/08 18:02B198OSbalak100,000
4215/08 18:01ARUNG7murni besar50,000
4315/08 18:01BEROK2018balak100,000
4415/08 18:01OVSGL3UQSPmurni besar50,000
4515/08 18:01HAMPURA11murni kecil50,000
4615/08 18:01B4B0LJ0Kmurni kecil25,000
4715/08 18:01RAGEL345lucky9910,000
4815/08 18:01TRETTETEWmurni besar5,000
4915/08 18:00PLGUJILAUmurni besar5,000
5015/08 18:00ANAM1712murni besar50,000

Ceme Multi Jackpot System

Jackpot dilihat dari gabungan kartu pemain dengan kartu bandar. Bandar harus membeli jackpot sebanyak jumlah player yang sedang duduk. Sebagai contoh bila terdapat 3 pemain duduk bermain, dan bandar memutuskan untuk membeli jackpot Rp 1.000, maka pada periode tersebut bandar akan membeli jackpot sebanyak 3xRp1.000 = Rp3.000.

Jackpot bukanlah suatu keharusan untuk dibeli, namun kami memberikan suatu fitur tambahan untuk member tercinta dari www.indowin99.org.

Terdapat tiga pilihan harga jackpot yang bisa anda beli yaitu :100,500 dan 1000 rupiah.

Hadiah dari Multi jackpot system www.indowin99.org

  1. Murni Kecil x 50 harga jackpot yang anda beli.
      (contoh:anda membeli 1000 maka:1000 X 50 = 50.000)
  2. Murni Besar x 50 harga jackpot yang anda beli
      (contoh:anda membeli 1000 maka:1000 X 50 = 50.000)
  3. BALAK x 200 harga jackpot yang anda beli
      (contoh:anda membeli 1000 maka:1000 X 200 = 200.000)
  4. ENAM DEWA x 6666 harga jackpot yang anda beli
      (contoh:anda membeli 1000 maka:1000 X 6666 = 6.666.000)

Demikian adalah penjelasan dari Multi Jackpot www.indowin99.org terima kasih dan selamat bermain salam hoki dari kami

Ceme Jackpot Winner

TOP ENAM DEWA
No.TanggalNamaPriceWin
115/08 18:12XSVNSD68UMmurni enam6,666,000
215/08 17:40LALA046murni enam6,666,000
315/08 17:32F0F07712murni enam3,333,000
415/08 17:28RASTI87murni enam6,666,000
515/08 17:23VK_MONAmurni enam3,333,000
TOP BALAK
No.TanggalNamaPriceWin
115/08 18:18PAIRS_ONNbalak100,000
215/08 18:18XXXPROXXXXbalak200,000
315/08 18:18RAM1608balak100,000
415/08 18:17BIM3393balak200,000
515/08 18:17BALUZA24balak200,000
LATEST JACKPOT
No.TanggalNamaPriceWin
115/08 18:18PAIRS_ONNbalak100,000
215/08 18:18XXXPROXXXXbalak200,000
315/08 18:18RAM1608balak100,000
415/08 18:18WEKEK26murni besar5,000
515/08 18:17RIWOZmurni besar5,000
615/08 18:17XENOVIATANmurni besar5,000
715/08 18:17MAMAHPAPA0murni kecil5,000
815/08 18:17ZCOIL123murni besar50,000
915/08 18:17CULUN190murni kecil25,000
1015/08 18:17CULUN190murni kecil25,000
1115/08 18:17BOPENGGGmurni kecil5,000
1215/08 18:17CUMI1111murni besar25,000
1315/08 18:17BIM3393balak200,000
1415/08 18:17BALUZA24balak200,000
1515/08 18:17RZHbalak100,000
1615/08 18:17NICKO234murni besar50,000
1715/08 18:17RAVE1993murni besar50,000
1815/08 18:17SIMONGA02murni besar50,000
1915/08 18:17LUCKY61murni besar50,000
2015/08 18:17IONK5JF77Fmurni besar50,000
2115/08 18:16BAYURAFA9balak100,000
2215/08 18:16NOV1992murni besar50,000
2315/08 18:16V07MHQPPN9murni besar5,000
2415/08 18:16NOV1992murni besar50,000
2515/08 18:16IBI76murni besar50,000
2615/08 18:16EKA999balak200,000
2715/08 18:16UT_0488murni kecil50,000
2815/08 18:16BELAS22murni besar50,000
2915/08 18:16INF171112murni besar50,000
3015/08 18:16LUNGCHEN89murni kecil50,000
3115/08 18:16ABRAG1234murni besar25,000
3215/08 18:16PHIAN789murni besar50,000
3315/08 18:16JPNY4S4R91murni besar50,000
3415/08 18:16AWAN009murni kecil25,000
3515/08 18:16ADINATA111murni kecil25,000
3615/08 18:15D0LS77murni kecil50,000
3715/08 18:15D0LS77murni kecil50,000
3815/08 18:15KOTTTY99murni kecil25,000
3915/08 18:15MONICABGmurni besar5,000
4015/08 18:15BLAUZZ99murni besar50,000
4115/08 18:15BLENDES420murni kecil50,000
4215/08 18:15DOUBLEBOYSmurni kecil50,000
4315/08 18:15BJXBRAVO77murni kecil50,000
4415/08 18:15BIBILmurni kecil50,000
4515/08 18:15SYARRIYAH6balak200,000
4615/08 18:15IONK5JF77Fbalak200,000
4715/08 18:15RAYHAN92murni kecil50,000
4815/08 18:14ARBANI02murni besar50,000
4915/08 18:14PERSIB86balak100,000
5015/08 18:14KARE10murni kecil50,000